#timestamp,LO_Frequency,Hit,StdDev 
1543478415.4,286046996.7,P
1543478435.2,286046996.5,Y
1543478455.0,286047002.7,P
1543478455.9,286047002.7,N
1543478475.8,286046999.8,N
1543478495.6,286047000.9,N
1543478515.5,286047002.7,N
1543478535.3,286047000.0,N
1543478555.1,286046999.1,N
1543478575.9,286046998.2,N
1543478595.7,286047000.2,N
1543478615.5,286047002.3,N
1543478635.4,286047004.4,N
1543478655.2,286047001.5,N
1543478675.1,286047001.8,N
1543478676.0,286047001.8,N
1543478695.8,286047002.1,N
1543478715.6,286047004.0,N
1543478735.5,286047003.9,N
1543478755.3,286047002.6,N
1543478775.1,286047001.0,N
1543478795.9,286046998.5,N
1543478815.7,286046998.1,N
1543478835.6,286047000.1,N
1543478855.4,286047001.6,N
1543478875.2,286047001.5,N
1543478895.1,286047001.4,N
1543478896.0,286047001.4,N
1543478915.8,286047001.7,N
1543478935.6,286047002.0,N
1543478955.5,286047002.2,N
1543478975.3,286047002.4,N
1543478995.2,286047001.6,N
1543479015.9,286047001.8,N
1543479035.7,286047002.1,N
1543479055.6,286047001.8,N
1543479075.4,286047004.3,N
1543479095.2,286046999.8,N
1543479115.1,286046999.8,N
1543479116.0,286046999.8,N
1543479135.8,286047002.8,N
1543479155.7,286047001.6,N
1543479175.5,286047002.7,N
1543479195.3,286047001.9,N
1543479215.2,286047001.5,N
1543479235.0,286047001.4,N
1543479235.9,286047001.4,N
1543479255.7,286047003.7,N
1543479275.6,286047003.3,N
1543479295.4,286047003.1,N
1543479315.3,286047003.3,N
1543479335.1,286047004.3,Y
1543479355.8,286047001.9,P
1543479375.7,286047004.3,P
1543479395.5,286047002.2,N
1543479415.4,286046999.9,N
1543479435.2,286047002.6,N
1543479455.0,286047002.4,N
1543479455.9,286047002.4,N
1543479475.8,286047001.9,N
1543479495.6,286047001.7,N
1543479515.4,286047001.4,N
1543479535.3,286047002.5,N
1543479555.1,286047001.3,N
1543479575.9,286047004.3,Y
1543479595.7,286046998.4,P
1543479615.5,286046996.5,N
1543479635.4,286046999.2,N
1543479655.2,286046999.5,N
1543479675.0,286046999.2,N
1543479675.9,286046999.2,N
1543479695.8,286046996.9,N
1543479715.6,286046996.6,N
1543479735.5,286046997.4,N
1543479755.3,286046997.3,N
1543479775.1,286046999.2,N
1543479795.9,286046999.4,N
1543479815.7,286046999.3,N
1543479835.5,286046998.6,N
1543479855.4,286046998.8,N
1543479875.2,286046998.2,N
1543479895.1,286046998.1,N
1543479896.0,286046998.1,N
1543479915.8,286047000.4,N
1543479935.6,286047001.1,N
1543479955.5,286046998.1,N
1543479975.3,286047000.8,N
1543479995.1,286047000.4,N
1543480015.9,286047000.8,N
1543480035.7,286046998.8,N
1543480055.6,286046998.7,N
1543480075.4,286046999.3,N
1543480095.2,286046999.2,N
1543480115.1,286046999.3,N
1543480116.0,286046999.3,N
1543480135.8,286046997.0,N
1543480155.6,286046998.2,N
1543480175.5,286047001.1,N
1543480195.3,286046998.9,N
1543480215.2,286046998.5,N
1543480235.9,286047000.7,N
1543480255.7,286047000.5,N
1543480275.6,286046999.9,N
1543480295.4,286046999.7,N
1543480315.2,286047001.1,N
1543480335.1,286046998.5,N
1543480336.0,286046998.5,N
1543480355.8,286046998.9,N
1543480375.7,286046999.0,N
1543480395.5,286046998.3,N
1543480415.3,286046998.5,N
1543480435.2,286046996.5,Y
1543480455.0,286046999.3,P
1543480485.9,286046998.7,E
1543480495.9,286047001.1,N
1543480515.7,286047002.6,P
1543480535.5,286047001.6,N
1543480555.4,286047001.6,N
1543480575.2,286047001.3,N
1543480595.1,286047004.3,Y
1543480596.0,286047004.3,P
1543480615.8,286047000.6,N
1543480635.6,286047000.9,N
1543480655.5,286047000.9,N
1543480675.3,286047000.4,N
1543480695.1,286047001.0,N
1543480715.9,286047001.2,N
1543480735.7,286047000.4,N
1543480755.6,286047001.2,N
1543480775.4,286047000.7,N
1543480795.2,286047000.5,N
1543480815.1,286046998.6,N
1543480816.0,286046998.6,N
1543480835.8,286046996.9,N
1543480855.6,286046998.1,N
1543480875.5,286047000.6,N
1543480895.3,286047000.7,N
1543480915.2,286047000.8,N
1543480935.9,286047000.8,N
1543480955.7,286047000.6,N
1543480975.6,286047001.0,N
1543480995.4,286047001.1,N
1543481015.2,286046999.1,N
1543481035.1,286046996.9,N
1543481036.0,286046996.9,N
1543481055.8,286046999.2,N
1543481075.7,286047001.2,N
1543481095.5,286047000.7,N
1543481115.3,286047000.6,N
1543481135.2,286047000.8,N
1543481155.0,286047000.3,N
1543481155.9,286047000.3,N
1543481175.7,286047000.4,N
1543481195.6,286047002.7,N
1543481215.4,286047000.1,N
1543481235.3,286047000.4,N
1543481255.1,286047000.0,N
1543481256.0,286047000.0,N
1543481275.8,286047000.8,N
1543481295.7,286047001.0,N
1543481315.5,286047000.0,N
1543481335.4,286046998.6,N
1543481355.2,286047000.7,N
1543481375.0,286047000.6,N
1543481375.9,286047000.6,N
1543481395.8,286047000.8,N
1543481415.6,286046999.9,N
1543481435.4,286047001.0,N
1543481455.3,286047001.1,N
1543481475.1,286047000.7,N
1543481495.9,286046998.4,N
1543481515.7,286046998.5,N
1543481535.5,286046998.8,N
1543481555.4,286046999.1,N
1543481575.2,286046999.1,N
1543481595.0,286046998.4,N
1543481596.0,286046998.4,N
1543481615.8,286046998.2,N
1543481635.6,286046996.8,Y
1543481655.5,286046996.7,P
1543481675.3,286046996.6,N
1543481695.1,286046997.0,N
1543481715.9,286046996.9,N
1543481735.7,286046996.6,N
1543481755.6,286047001.1,N
1543481775.4,286046998.1,N
1543481795.2,286047000.6,N
1543481815.1,286047000.1,N
1543481816.0,286047000.1,N
1543481835.8,286047000.8,N
1543481855.6,286047000.9,N
1543481875.5,286047001.0,N
1543481895.3,286047002.3,N
1543481915.2,286047002.6,N
1543481935.9,286046999.8,N
1543481955.7,286047002.4,N
1543481975.6,286046999.7,N
1543481995.4,286046999.8,N
